Bookmark and Share
Track history (hours):
 

James L. Oberstar

More information available from US FCC via Universal Licensing System and Coast Guard Vessel Documentation Center.

Last reported at 2014-Apr-19 03:32 UTC. Time now 2014-Apr-23 19:18 UTC.
Position N 29°32' W 094°54'.

Length 26 m; draft 2.8 m.

Type: Towing. MMSI: 367052120.

NotesDate/timePositionNaut miles runAvg speedWind from/ knotsBaromVisibWave heightAir tempDewpointWater temp
2014-Apr-19 03:32N 29°32' W 094°54'7 6.5
2014-Apr-19 02:32N 29°37' W 094°58'5 5.4
2014-Apr-19 01:33N 29°42' W 095°01'3 0.1
2014-Apr-18 01:18N 29°44' W 095°03'3 3.5
2014-Apr-18 00:33N 29°46' W 095°05'1 0.9
2014-Apr-17 23:03N 29°47' W 095°05'0 0.1
2014-Apr-17 21:33N 29°47' W 095°05'0 0.0
2014-Apr-17 20:30N 29°47' W 095°05'0 0.0
2014-Apr-17 19:30N 29°47' W 095°05'0 0.0
2014-Apr-17 18:30N 29°47' W 095°05'0 0.0
2014-Apr-17 16:24N 29°47' W 095°05'0 0.0
2014-Apr-17 15:18N 29°47' W 095°05'0 0.0
2014-Apr-17 14:33N 29°47' W 095°05'0 0.1
2014-Apr-17 12:22N 29°47' W 095°05'0 0.0
2014-Apr-16 22:27N 29°47' W 095°05'0 0.0
2014-Apr-16 21:33N 29°47' W 095°05'1 0.7
2014-Apr-16 20:27N 29°47' W 095°05'2 0.4
2014-Apr-16 15:16N 29°45' W 095°06'0 0.0
2014-Apr-16 14:28N 29°45' W 095°06'0 0.0
2014-Apr-16 13:28N 29°45' W 095°06'0 0.0
2014-Apr-16 12:19N 29°45' W 095°06'0 0.0
2014-Apr-16 07:05N 29°45' W 095°06'0 0.2
2014-Apr-16 06:03N 29°45' W 095°06'3 0.1
2014-Apr-14 16:32N 29°47' W 095°05'0 0.0
2014-Apr-14 15:32N 29°47' W 095°05'0 0.0
2014-Apr-14 14:32N 29°47' W 095°05'0 0.0
2014-Apr-14 13:32N 29°47' W 095°05'0 0.0
2014-Apr-13 19:20N 29°47' W 095°05'0 0.0
2014-Apr-13 18:14N 29°47' W 095°05'0 0.1
2014-Apr-13 17:32N 29°47' W 095°05'3 3.3
2014-Apr-13 16:33N 29°44' W 095°07'1 0.0
2014-Apr-11 18:21N 29°44' W 095°08'1 0.2
2014-Apr-11 15:19N 29°44' W 095°07'3 3.6
2014-Apr-11 14:33N 29°46' W 095°05'1 1.4
2014-Apr-11 13:30N 29°47' W 095°05'1 0.1
2014-Apr-11 05:21N 29°46' W 095°05'3 2.8
2014-Apr-11 04:17N 29°44' W 095°03'1 1.4
2014-Apr-11 03:31N 29°45' W 095°04'3 0.9
2014-Apr-11 00:24N 29°47' W 095°05'0 0.0
2014-Apr-10 23:30N 29°47' W 095°05'0 0.0
2014-Apr-10 21:14N 29°47' W 095°05'0 0.1
2014-Apr-10 20:29N 29°47' W 095°05'0 0.0
2014-Apr-10 19:29N 29°47' W 095°05'0 0.0
2014-Apr-10 18:26N 29°47' W 095°05'0 0.0
2014-Apr-10 17:29N 29°47' W 095°05'0 0.0
2014-Apr-10 16:29N 29°47' W 095°05'0 0.0
2014-Apr-10 15:23N 29°47' W 095°05'0 0.0
2014-Apr-10 14:24N 29°47' W 095°05'0 0.0
2014-Apr-10 13:28N 29°47' W 095°05'0 0.0
2014-Apr-10 12:28N 29°47' W 095°05'0 0.0
2014-Apr-10 10:30N 29°47' W 095°05'0 0.0
2014-Apr-10 09:27N 29°47' W 095°05'0 0.0
2014-Apr-10 08:27N 29°47' W 095°05'0 0.1
2014-Apr-10 07:17N 29°47' W 095°05'4 4.6
2014-Apr-10 06:31N 29°44' W 095°03'0 0.0
2014-Apr-10 05:28N 29°44' W 095°03'4 0.8
2014-Apr-10 01:11N 29°47' W 095°05'0 0.1
2014-Apr-10 00:32N 29°47' W 095°05'0 0.0
2014-Apr-09 23:32N 29°47' W 095°05'0 0.1
2014-Apr-09 22:19N 29°47' W 095°05'0 0.1
2014-Apr-09 19:31N 29°47' W 095°05'0 0.0
2014-Apr-09 18:31N 29°47' W 095°05'0 0.0
2014-Apr-09 17:31N 29°47' W 095°05'0 0.0
2014-Apr-09 16:31N 29°47' W 095°05'0 0.0
2014-Apr-09 14:31N 29°47' W 095°05'0 0.0
2014-Apr-09 13:31N 29°47' W 095°05'0 0.0
2014-Apr-09 12:31N 29°47' W 095°05'0 0.0
2014-Apr-09 11:30N 29°47' W 095°05'0 0.0
2014-Apr-09 10:30N 29°47' W 095°05'0 0.0
2014-Apr-09 09:30N 29°47' W 095°05'0 0.0
2014-Apr-09 08:33N 29°47' W 095°05'0 0.0
2014-Apr-09 07:33N 29°47' W 095°05'0 0.0
2014-Apr-09 06:18N 29°47' W 095°05'0 0.0
2014-Apr-09 05:33N 29°47' W 095°05'  

Dump ship's entire track history

sailing weather and tide predictions

James L. Oberstar — WDC6154 — position and weather